Sunshine Coast Airport Observation History
Time Wind Speed Temp Pressure Rel. Hum Rain
17/08:30pm SW 10-14 kts 20.0°c 1017.7 hPa 91% 0.6mm
17/08:00pm WSW 7-8 kts 20.9°c 1017.2 hPa 88% 0.0mm
17/07:30pm S 5-7 kts 21.7°c 1017.1 hPa 85% 0.0mm
17/07:00pm SSE 5 kts 21.9°c 1016.6 hPa 84% 0.0mm
17/06:30pm S 4-5 kts 22.2°c 1016.4 hPa 82% 0.0mm
17/06:00pm ESE 6-9 kts 22.9°c 1016.2 hPa 79% 0.0mm
17/05:30pm ESE 7-9 kts 22.9°c 1016.1 hPa 75% 0.0mm
17/05:00pm ESE 6-9 kts 23.4°c 1016.2 hPa 73% 0.0mm
17/04:30pm ESE 7-9 kts 23.8°c 1016.0 hPa 71% 0.0mm
17/04:00pm ESE 7-9 kts 24.3°c 1015.8 hPa 71% 0.0mm
17/03:30pm ESE 7-9 kts 24.4°c 1015.8 hPa 69% 0.0mm
17/03:00pm E 8-10 kts 24.5°c 1015.7 hPa 69% 0.0mm
17/02:30pm E 7-10 kts 24.8°c 1015.7 hPa 69% 0.0mm
17/02:00pm ESE 8-10 kts 24.8°c 1015.8 hPa 70% 0.0mm
17/01:30pm ESE 7-10 kts 25.0°c 1015.9 hPa 69% 0.0mm
17/01:00pm SE 7-10 kts 24.6°c 1016.1 hPa 66% 0.0mm
17/12:30pm ESE 9-11 kts 24.8°c 1016.6 hPa 69% 0.0mm
17/12:00pm SE 9-11 kts 24.7°c 1017.0 hPa 69% 0.0mm
17/11:30am SE 8-10 kts 24.8°c 1017.5 hPa 70% 0.0mm
17/11:00am SE 7-11 kts 24.9°c 1018.0 hPa 68% 0.0mm
17/10:30am ESE 7-10 kts 25.4°c 1018.4 hPa 68% 0.0mm
17/10:00am S 6-13 kts 24.4°c 1018.7 hPa 69% 0.0mm
17/09:30am S 7-11 kts 23.8°c 1018.8 hPa 71% 0.0mm
17/09:00am SSW 8-12 kts 23.1°c 1019.1 hPa 74% 0.2mm
17/08:30am SSW 7-9 kts 21.9°c 1019.1 hPa 80% 0.2mm
17/08:00am SW 6-8 kts 21.0°c 1019.0 hPa 88% 0.2mm
17/07:30am WSW 5-7 kts 19.5°c 1018.8 hPa 90% 0.2mm
17/07:00am SW 6-8 kts 18.9°c 1018.6 hPa 91% 0.2mm
17/06:30am SW 7-9 kts 18.5°c 1018.5 hPa 92% 0.2mm
17/06:00am SW 7-9 kts 18.6°c 1018.3 hPa 92% 0.2mm
17/05:30am SW 6-7 kts 18.8°c 1018.0 hPa 92% 0.2mm
17/05:00am SW 7-9 kts 19.1°c 1017.7 hPa 92% 0.2mm
17/04:30am SW 6-8 kts 19.3°c 1017.6 hPa 93% 0.2mm
17/04:00am SW 5-7 kts 19.6°c 1017.4 hPa 94% 0.2mm
17/03:30am SW 7-10 kts 19.9°c 1017.6 hPa 94% 0.2mm
17/03:00am SSW 6-8 kts 19.8°c 1017.5 hPa 94% 0.0mm
17/02:30am SW 6-7 kts 19.3°c 1017.6 hPa 95% 0.0mm
17/02:00am WSW 4-6 kts 18.9°c 1018.0 hPa 95% 0.0mm
17/01:30am W 4-5 kts 18.4°c 1018.1 hPa 94% 0.0mm
17/01:00am WSW 3-5 kts 18.5°c 1018.2 hPa 93% 0.0mm
17/12:30am WSW 7-9 kts 18.9°c 1018.4 hPa 93% 0.0mm
17/12:00am WSW 2-4 kts 18.7°c 1018.6 hPa 93% 0.0mm
Time Wind Speed Temp Pressure Rel. Hum Rain
16/11:30pm WSW 3-5 kts 18.8°c 1018.8 hPa 92% 0.0mm
16/11:00pm WSW 5-7 kts 18.7°c 1018.8 hPa 93% 0.0mm
16/10:30pm WSW 1-5 kts 18.4°c 1019.2 hPa 91% 0.0mm
16/10:00pm WSW 3-4 kts 19.2°c 1019.3 hPa 90% 0.0mm
16/09:30pm WSW 4-5 kts 19.2°c 1019.3 hPa 88% 0.0mm
16/09:00pm SW 3-6 kts 19.8°c 1019.1 hPa 88% 0.0mm
16/08:30pm SW 4-5 kts 20.0°c 1018.8 hPa 87% 0.0mm
16/08:00pm SW 5-6 kts 20.1°c 1018.7 hPa 87% 0.0mm
16/07:30pm SW 5-6 kts 20.6°c 1018.3 hPa 83% 0.0mm
16/07:00pm SE 5-6 kts 22.3°c 1017.8 hPa 78% 0.0mm
16/06:30pm SE 4-5 kts 22.8°c 1017.2 hPa 74% 0.0mm
16/06:00pm E 4-6 kts 22.9°c 1016.9 hPa 72% 0.0mm
16/05:30pm ENE 4-6 kts 23.2°c 1016.4 hPa 70% 0.0mm
16/05:00pm ENE 6-7 kts 24.1°c 1016.1 hPa 67% 0.0mm
16/04:30pm NE 7-9 kts 24.7°c 1015.8 hPa 67% 0.0mm
16/04:00pm NE 9-11 kts 25.1°c 1015.6 hPa 65% 0.0mm
16/03:30pm NE 10-12 kts 25.4°c 1015.3 hPa 62% 0.0mm
16/03:00pm NE 11-13 kts 25.5°c 1015.1 hPa 64% 0.0mm
16/02:30pm NE 10-13 kts 25.8°c 1015.1 hPa 65% 0.0mm
16/02:00pm NE 10-13 kts 26.0°c 1015.0 hPa 68% 0.0mm
16/01:30pm NE 10-13 kts 26.0°c 1015.0 hPa 66% 0.0mm
16/01:00pm NE 10-12 kts 26.1°c 1015.2 hPa 67% 0.0mm
16/12:30pm NE 11-13 kts 26.0°c 1015.5 hPa 68% 0.0mm
16/12:00pm NE 11-12 kts 25.9°c 1015.9 hPa 69% 0.0mm
16/11:30am NNE 8-13 kts 26.2°c 1016.3 hPa 65% 0.0mm
16/11:00am NW 6-9 kts 26.9°c 1016.8 hPa 55% 0.0mm
16/10:30am NNW 5-10 kts 26.6°c 1017.1 hPa 59% 0.0mm
16/10:00am WNW 6-10 kts 25.8°c 1017.3 hPa 62% 0.0mm
16/09:30am NW 8-12 kts 24.9°c 1017.7 hPa 69% 0.0mm
16/09:00am NW 6-9 kts 23.7°c 1017.7 hPa 73% 0.0mm
16/08:30am WNW 4-6 kts 22.1°c 1017.6 hPa 76% 0.0mm
16/08:00am WNW 4-5 kts 20.2°c 1017.6 hPa 83% 0.0mm
16/07:30am WNW 5-6 kts 18.4°c 1017.2 hPa 88% 0.0mm
16/07:00am WNW 6-7 kts 16.6°c 1017.1 hPa 95% 0.0mm
16/06:30am WNW 6-7 kts 15.2°c 1016.5 hPa 96% 0.0mm
16/06:00am WNW 5-6 kts 14.6°c 1015.9 hPa 96% 0.0mm
16/05:30am NW 7 kts 14.6°c 1015.7 hPa 95% 0.0mm
16/05:00am WNW 6-7 kts 14.9°c 1015.8 hPa 95% 0.0mm
16/04:30am WNW 6 kts 14.8°c 1015.6 hPa 95% 0.0mm
16/04:00am WNW 6 kts 14.6°c 1015.4 hPa 95% 0.0mm
16/03:30am WNW 5 kts 15.1°c 1015.1 hPa 94% 0.0mm
16/03:00am WNW 6-7 kts 15.3°c 1015.0 hPa 94% 0.0mm
16/02:30am WNW 7-8 kts 15.4°c 1015.1 hPa 95% 0.0mm
16/02:00am NW 6-7 kts 15.1°c 1015.3 hPa 95% 0.0mm
16/01:30am WNW 6-7 kts 15.2°c 1015.5 hPa 94% 0.0mm
16/01:00am WNW 7 kts 15.7°c 1015.7 hPa 94% 0.0mm
16/12:30am WNW 6-7 kts 15.7°c 1015.9 hPa 94% 0.0mm
16/12:00am WNW 5 kts 15.7°c 1016.2 hPa 94% 0.0mm
Time Wind Speed Temp Pressure Rel. Hum Rain
15/11:30pm WNW 5-6 kts 16.0°c 1016.4 hPa 93% 0.0mm
15/11:00pm WNW 5-6 kts 16.3°c 1016.5 hPa 92% 0.0mm
15/10:30pm WNW 4-5 kts 16.5°c 1016.7 hPa 92% 0.0mm
15/10:00pm WNW 5-6 kts 17.0°c 1016.9 hPa 92% 0.0mm
15/09:30pm WNW 4-5 kts 17.2°c 1016.9 hPa 92% 0.0mm
15/09:00pm WNW 5-6 kts 17.3°c 1016.7 hPa 91% 0.0mm
15/08:30pm NW 6-7 kts 17.4°c 1016.5 hPa 90% 0.0mm
15/08:00pm NW 5-6 kts 18.2°c 1016.3 hPa 87% 0.0mm
15/07:30pm NW 5-6 kts 18.1°c 1016.1 hPa 84% 0.0mm
15/07:00pm NW 5-6 kts 19.2°c 1015.9 hPa 83% 0.0mm
15/06:30pm N 6-8 kts 19.8°c 1015.5 hPa 76% 0.0mm
15/06:00pm N 6-9 kts 21.0°c 1015.3 hPa 73% 0.0mm
15/05:30pm NNE 9-11 kts 22.2°c 1015.0 hPa 69% 0.0mm
15/05:00pm NNE 9-11 kts 23.0°c 1014.7 hPa 65% 0.0mm
15/04:30pm NE 10-12 kts 23.8°c 1014.5 hPa 64% 0.0mm
15/04:00pm NE 12-13 kts 24.2°c 1014.3 hPa 63% 0.0mm
15/03:30pm NNE 12-14 kts 24.6°c 1014.3 hPa 61% 0.0mm
15/03:00pm NE 13-16 kts 25.0°c 1014.3 hPa 60% 0.0mm
15/02:30pm NE 12-15 kts 25.3°c 1014.2 hPa 57% 0.0mm
15/02:00pm NE 13-14 kts 25.4°c 1014.3 hPa 57% 0.0mm
15/01:30pm NE 12-14 kts 25.3°c 1014.6 hPa 56% 0.0mm
15/01:00pm NE 11-14 kts 25.7°c 1015.0 hPa 55% 0.0mm
15/12:30pm NE 11-13 kts 25.3°c 1015.3 hPa 59% 0.0mm
15/12:00pm NE 11-13 kts 25.5°c 1015.6 hPa 58% 0.0mm
15/11:30am NE 9-11 kts 25.6°c 1016.0 hPa 56% 0.0mm
15/11:00am NE 9-10 kts 25.3°c 1016.5 hPa 57% 0.0mm
15/10:30am NE 7-8 kts 25.5°c 1016.9 hPa 56% 0.0mm
15/10:00am N 5-7 kts 24.8°c 1017.1 hPa 57% 0.0mm
15/09:30am NW 6-9 kts 24.0°c 1017.3 hPa 60% 0.0mm
15/09:00am WNW 5-7 kts 22.8°c 1017.5 hPa 68% 0.0mm
15/08:30am W 5-7 kts 21.2°c 1017.5 hPa 79% 0.0mm
15/08:00am W 5-7 kts 18.9°c 1017.4 hPa 90% 0.0mm
15/07:30am W 6-7 kts 17.0°c 1017.0 hPa 95% 0.0mm
15/07:00am W 4-5 kts 15.5°c 1016.8 hPa 97% 0.0mm
15/06:30am W 5-6 kts 14.0°c 1016.5 hPa 97% 0.0mm
15/06:00am WNW 4-5 kts 13.9°c 1016.2 hPa 97% 0.0mm
15/05:30am W 3-4 kts 13.9°c 1016.1 hPa 96% 0.0mm
15/05:00am W 5-7 kts 13.9°c 1016.1 hPa 96% 0.0mm
15/04:30am W 5-6 kts 14.1°c 1016.0 hPa 96% 0.0mm
15/04:00am W 4-5 kts 14.1°c 1015.9 hPa 96% 0.0mm
15/03:30am W 5-6 kts 14.4°c 1015.9 hPa 96% 0.0mm
15/03:00am W 5-6 kts 14.4°c 1016.0 hPa 96% 0.0mm
15/02:30am W 4-5 kts 14.4°c 1016.3 hPa 96% 0.0mm
15/02:00am W 5 kts 14.7°c 1016.4 hPa 96% 0.0mm
15/01:30am W 5-6 kts 14.9°c 1016.8 hPa 96% 0.0mm
15/01:00am W 4 kts 14.7°c 1017.1 hPa 95% 0.0mm
15/12:30am W 4-5 kts 15.3°c 1017.4 hPa 96% 0.0mm
15/12:00am W 5 kts 15.3°c 1017.7 hPa 95% 0.0mm